Flag for Slovakia Weather past 2 weeks in Piešťany, Slovakia

50 °F


Feels Like: 47 °F
Forecast: 43 / 50 °F
Wind: 7 mph from Northeast

Location: Piestany

Current Time: Oct 10, 2015 at 6:17:41 AM

Latest Report: Oct 10, 2015 at 5:30 AM

Visibility: 3 mi

Pressure: 30.09 "Hg

Humidity: 94%

Dew point: 48 °F

Location of PiešťanyLocation

Historic Weather in Piešťany — Graph


Piešťany temperature yesterday

Maximum temperature yesterday: 55 °F (at 12:30 AM)
Minimum temperature yesterday: 52 °F (at 8:00 PM)
Average temperature yesterday: 54 °F

Past Weeks' High & Low Weather Summary

High68 °F (Oct 3, 2:30 PM)100% (Oct 2, 6:00 AM)30.51 "Hg (Oct 2, 6:00 AM)
Low37 °F (Oct 2, 7:30 AM)37% (Sep 28, 4:30 PM)29.86 "Hg (Oct 6, 3:30 PM)
Average55 °F78%30.17 "Hg
* Reported Sep 25 5:00 AM — Oct 10 5:00 AM, Piešťany, Weather by CustomWeather, © 2015

Note: Actual official high and low records may vary slightly from our data, if they occured in-between our weather recording intervals... More about our weather records


Piešťany weather history for previous 24 hours

Time TempWeatherWind HumidityBarometerVisibility
5:00 AM
Sat, Oct 10
50 °FFog.6 mph94%30.09 "Hg2 mi
4:30 AM50 °FFog.7 mph94%30.09 "Hg2 mi
4:00 AM50 °FFog.8 mph94%30.09 "Hg1 mi
3:30 AM50 °FDrizzle. Fog.8 mph94%30.09 "Hg1 mi
3:00 AM50 °FDrizzle. Fog.8 mph94%30.09 "Hg1 mi
2:30 AM50 °FDrizzle. Fog.6 mph94%30.09 "Hg2 mi
2:00 AM52 °FOvercast.5 mph88%30.09 "Hg5 mi
1:30 AM52 °FOvercast.7 mph88%30.09 "Hg5 mi
1:00 AM52 °FOvercast.9 mph88%30.09 "Hg5 mi
12:30 AM52 °FOvercast.9 mph88%30.09 "Hg5 mi
12:00 AM52 °FOvercast.8 mph88%30.09 "HgN/A
11:30 PM
Fri, Oct 9
52 °FOvercast.8 mph88%30.09 "HgN/A
11:00 PM52 °FMostly cloudy.7 mph94%30.09 "HgN/A
10:30 PM52 °FFog.7 mph94%30.09 "Hg3 mi
10:00 PM52 °FFog.8 mph94%30.09 "Hg2 mi
9:30 PM52 °FFog.5 mph94%30.09 "Hg2 mi
9:00 PM52 °FFog.5 mph94%30.09 "Hg2 mi
8:30 PM54 °FFog.8 mph82%30.09 "Hg2 mi
8:00 PM52 °FFog.7 mph88%30.09 "Hg2 mi
7:30 PM54 °FFog.6 mph88%30.09 "Hg2 mi
7:00 PM54 °FFog.6 mph88%30.09 "Hg2 mi
6:30 PM54 °FFog.9 mph88%30.09 "Hg2 mi
6:00 PM54 °FFog.6 mph88%30.09 "Hg2 mi
5:30 PM54 °FFog.7 mph94%30.09 "Hg2 mi
5:00 PM54 °FFog.6 mph94%30.09 "Hg2 mi
4:30 PM55 °FFog.6 mph88%30.07 "Hg3 mi
4:00 PM55 °FMostly cloudy.5 mph88%30.09 "Hg3 mi
3:30 PM55 °FMore clouds than sun.3 mph88%30.07 "Hg4 mi
3:00 PM55 °FMore clouds than sun.5 mph88%30.07 "Hg5 mi
2:30 PM55 °FCloudy.5 mph88%30.09 "Hg4 mi
2:00 PM55 °FFog.5 mph94%30.09 "Hg2 mi
1:30 PM55 °FFog.2 mph94%30.09 "Hg2 mi
1:00 PM55 °FFog.5 mph94%30.09 "Hg2 mi
12:30 PM55 °FFog.3 mph94%30.09 "Hg2 mi
12:00 PM55 °FFog.5 mph94%30.09 "Hg1 mi
11:30 AM55 °FFog.3 mph94%30.09 "Hg1 mi
11:00 AM55 °FFog.5 mph94%30.09 "Hg1 mi
10:30 AM54 °FFog.5 mph100%30.09 "Hg1 mi
10:00 AM54 °FFog.6 mph100%30.09 "Hg1 mi
9:30 AM54 °FDrizzle. Fog.6 mph100%30.09 "Hg1 mi
9:00 AM54 °FFog.6 mph100%30.09 "Hg1 mi
8:30 AM54 °FFog.7 mph100%30.07 "Hg1 mi
8:00 AM54 °FFog.6 mph100%30.07 "Hg1 mi
7:30 AM54 °FFog.2 mph100%30.07 "Hg1 mi
7:00 AM54 °FFog.3 mph100%30.07 "Hg1 mi
6:30 AM54 °FFog.2 mph100%30.07 "Hg2 mi
6:00 AM54 °FFog.3 mph100%30.07 "Hg2 mi
Weather by CustomWeather, © 2015

See weather overviewHow to use our weather pages